STARLINK-4394 (53467 NORAD) Tracking and Keplerian Element Data

This shows tracking and keplerian element data for the satellite.

Feedback or suggestion? Click here.




ElementValue
Catalog53467
NameSTARLINK-4394
Epoch Orbit1546
Epoch Day324.91569511
Epoch Year2022
RAAN83.9737
Inclination97.6541
Eccentricity0.0001383
Argument of Perigee14.6795
Mean Anonmoly345.4469
Mean Motion15.01258246
Decay Rate2.377E-05
L11 53467U 22099C 22324.91569511 .00002377 00000+0 18963-3 0 9995
L22 53467 97.6541 83.9737 0001383 14.6795 345.4469 15.01258246 15468



Live tracking and technical data element details for STARLINK-4394 (NORAD 53467). STARLINK-4394 can be tracked NOW for your location showing map with azimuth and elevation plus other details from your city location.







IsCatalogInMostPopularTable: catalog: 53467, numindb: 4
Update: records affected: 1



GetName: 53467 STARLINK-4394

Hit Count: updated at: Tue, 29 Nov 2022 01:45:01 GMT